LKR484 KJFK-KBOI

Flight info

Callsign LKR484
Flight time N/A
Altitude 30000
Route GAYEL Q818 WOZEE Q935 HOCKE GRB GEP RAP/N0450F360 CZI DBS
Aircraft A306/H-SDE3FGHIRWY/LB1

Departure

Time 2026-05-09 12:46
Airport John F. Kennedy International Airport (KJFK)

Arrival

Time N/A
Airport Boise Air Terminal/Gowen Field (KBOI)
Time Latitude Longitude Altitude Speed Heading
2026-05-09 12:00 40.64111 -73.79206 25 ft 0 kts 327°
2026-05-09 12:18 40.64108 -73.79205 25 ft 1 kts 327°
2026-05-09 12:18 40.64097 -73.79192 25 ft 2 kts 308°
2026-05-09 12:18 40.64090 -73.79177 25 ft 2 kts 293°
2026-05-09 12:18 40.64086 -73.79159 25 ft 2 kts 275°
2026-05-09 12:19 40.64086 -73.79139 25 ft 2 kts 258°
2026-05-09 12:19 40.64091 -73.79120 25 ft 2 kts 240°
2026-05-09 12:19 40.64099 -73.79106 25 ft 0 kts 225°
2026-05-09 12:19 40.64101 -73.79103 25 ft 0 kts 223°
2026-05-09 12:26 40.64098 -73.79107 25 ft 2 kts 223°
2026-05-09 12:26 40.64079 -73.79131 25 ft 6 kts 224°
2026-05-09 12:26 40.64026 -73.79200 25 ft 15 kts 224°
2026-05-09 12:26 40.63970 -73.79268 25 ft 2 kts 213°
2026-05-09 12:27 40.63958 -73.79273 25 ft 3 kts 171°
2026-05-09 12:27 40.63934 -73.79195 25 ft 13 kts 119°
2026-05-09 12:27 40.63877 -73.79069 25 ft 17 kts 121°
2026-05-09 12:27 40.63808 -73.78920 25 ft 20 kts 119°
2026-05-09 12:28 40.63742 -73.78773 25 ft 18 kts 121°
2026-05-09 12:28 40.63680 -73.78637 25 ft 17 kts 120°
2026-05-09 12:28 40.63622 -73.78506 25 ft 16 kts 121°
2026-05-09 12:28 40.63565 -73.78382 25 ft 15 kts 121°
2026-05-09 12:29 40.63512 -73.78267 25 ft 14 kts 120°
2026-05-09 12:29 40.63456 -73.78140 25 ft 16 kts 120°
2026-05-09 12:29 40.63411 -73.78001 25 ft 16 kts 92°
2026-05-09 12:29 40.63459 -73.77872 25 ft 16 kts 42°
2026-05-09 12:30 40.63549 -73.77797 25 ft 14 kts 31°
2026-05-09 12:30 40.63636 -73.77728 25 ft 14 kts 30°
2026-05-09 12:30 40.63821 -73.77584 25 ft 15 kts 31°
2026-05-09 12:31 40.63916 -73.77509 25 ft 16 kts 31°
2026-05-09 12:31 40.64117 -73.77349 25 ft 17 kts 30°
2026-05-09 12:31 40.64223 -73.77270 25 ft 17 kts 30°
2026-05-09 12:32 40.64329 -73.77188 25 ft 18 kts 30°
2026-05-09 12:32 40.64417 -73.77084 25 ft 16 kts 74°
2026-05-09 12:32 40.64424 -73.77048 25 ft 0 kts 76°
2026-05-09 12:33 40.64425 -73.77039 25 ft 3 kts 73°
2026-05-09 12:33 40.64434 -73.77022 25 ft 0 kts 48°
2026-05-09 12:35 40.64447 -73.77003 25 ft 5 kts 39°
2026-05-09 12:35 40.64503 -73.76987 25 ft 12 kts 12°
2026-05-09 12:35 40.64553 -73.76955 25 ft 0 kts 31°
2026-05-09 12:36 40.64574 -73.76938 25 ft 5 kts 31°
2026-05-09 12:37 40.64607 -73.76913 25 ft 5 kts 31°
2026-05-09 12:37 40.64645 -73.76881 25 ft 8 kts 31°
2026-05-09 12:37 40.64698 -73.76840 25 ft 8 kts 30°
2026-05-09 12:37 40.64757 -73.76794 25 ft 13 kts 30°
2026-05-09 12:38 40.64813 -73.76749 25 ft 1 kts 41°
2026-05-09 12:38 40.64851 -73.76717 25 ft 8 kts 24°
2026-05-09 12:38 40.64898 -73.76685 25 ft 6 kts 29°
2026-05-09 12:38 40.64918 -73.76668 25 ft 0 kts 30°
2026-05-09 12:39 40.64925 -73.76664 25 ft 3 kts 30°
2026-05-09 12:39 40.64967 -73.76631 25 ft 2 kts 31°
2026-05-09 12:39 40.64968 -73.76630 25 ft 0 kts 32°
2026-05-09 12:39 40.64970 -73.76628 25 ft 0 kts 32°
2026-05-09 12:40 40.64972 -73.76627 25 ft 0 kts 32°
2026-05-09 12:40 40.64974 -73.76625 25 ft 0 kts 32°
2026-05-09 12:40 40.64976 -73.76623 25 ft 0 kts 32°
2026-05-09 12:40 40.64978 -73.76622 25 ft 0 kts 32°
2026-05-09 12:41 40.64994 -73.76608 25 ft 7 kts 31°
2026-05-09 12:41 40.65038 -73.76574 25 ft 6 kts 30°
2026-05-09 12:41 40.65051 -73.76564 25 ft 0 kts 30°
2026-05-09 12:41 40.65053 -73.76562 25 ft 0 kts 30°
2026-05-09 12:42 40.65055 -73.76561 25 ft 0 kts 30°
2026-05-09 12:42 40.65057 -73.76560 25 ft 0 kts 30°
2026-05-09 12:42 40.65068 -73.76551 25 ft 5 kts 30°
2026-05-09 12:42 40.65097 -73.76510 25 ft 7 kts 75°
2026-05-09 12:43 40.65088 -73.76460 25 ft 0 kts 117°
2026-05-09 12:44 40.65076 -73.76430 25 ft 7 kts 119°
2026-05-09 12:44 40.65023 -73.76372 25 ft 13 kts 186°
2026-05-09 12:44 40.64983 -73.76391 25 ft 0 kts 210°
2026-05-09 12:45 40.64981 -73.76392 25 ft 0 kts 210°
2026-05-09 12:45 40.64979 -73.76394 25 ft 0 kts 210°
2026-05-09 12:45 40.64975 -73.76397 25 ft 4 kts 210°
2026-05-09 12:45 40.64759 -73.76562 25 ft 68 kts 210°
2026-05-09 12:46 40.64171 -73.77021 25 ft 126 kts 211°
2026-05-09 12:46 40.63268 -73.77737 27 ft 173 kts 211°
2026-05-09 12:46 40.62209 -73.78591 430 ft 178 kts 211°
2026-05-09 12:46 40.61263 -73.79655 772 ft 187 kts 235°
2026-05-09 12:47 40.60806 -73.81355 1045 ft 209 kts 267°
2026-05-09 12:47 40.61107 -73.83296 1122 ft 240 kts 299°
2026-05-09 12:47 40.62425 -73.84856 1041 ft 277 kts 339°
2026-05-09 12:47 40.64291 -73.85038 2040 ft 269 kts
2026-05-09 12:48 40.66127 -73.84514 2760 ft 272 kts 13°
2026-05-09 12:48 40.67945 -73.83901 3361 ft 278 kts 14°
2026-05-09 12:48 40.69850 -73.83353 3983 ft 283 kts
2026-05-09 12:48 40.71847 -73.83373 4550 ft 290 kts 351°
2026-05-09 12:49 40.73795 -73.83984 5206 ft 292 kts 341°
2026-05-09 12:49 40.75685 -73.84976 5914 ft 292 kts 335°
2026-05-09 12:49 40.77491 -73.86154 6527 ft 295 kts 332°
2026-05-09 12:49 40.79302 -73.87459 7078 ft 300 kts 330°
2026-05-09 12:50 40.81119 -73.88830 7621 ft 305 kts 329°
2026-05-09 12:50 40.82957 -73.90243 8210 ft 308 kts 328°
2026-05-09 12:50 40.84797 -73.91671 8807 ft 310 kts 328°
2026-05-09 12:50 40.86659 -73.93121 9383 ft 313 kts 327°
2026-05-09 12:51 40.88532 -73.94584 9947 ft 316 kts 327°
2026-05-09 12:51 40.90450 -73.96083 10333 ft 327 kts 326°
2026-05-09 12:51 40.92479 -73.97674 10480 ft 347 kts 326°
2026-05-09 12:51 40.94583 -73.99316 10745 ft 361 kts 325°
2026-05-09 12:52 40.96785 -74.01031 11155 ft 372 kts 325°
2026-05-09 12:52 40.99049 -74.02814 11471 ft 385 kts 326°
2026-05-09 12:52 41.01362 -74.04629 12131 ft 386 kts 325°
2026-05-09 12:52 41.03670 -74.06437 12755 ft 388 kts 325°
2026-05-09 12:53 41.05982 -74.08252 13268 ft 393 kts 325°
2026-05-09 12:53 41.08337 -74.10102 13811 ft 396 kts 325°
2026-05-09 12:53 41.10720 -74.11977 14317 ft 399 kts 325°
2026-05-09 12:53 41.13108 -74.13857 14772 ft 404 kts 325°
2026-05-09 12:54 41.15537 -74.15770 15240 ft 407 kts 324°
2026-05-09 12:54 41.17965 -74.17685 15715 ft 410 kts 324°
2026-05-09 12:54 41.20422 -74.19624 16180 ft 414 kts 324°
2026-05-09 12:54 41.22898 -74.21580 16632 ft 417 kts 324°
2026-05-09 12:55 41.25406 -74.23562 17072 ft 420 kts 324°
2026-05-09 12:55 41.27911 -74.25545 17503 ft 423 kts 324°
2026-05-09 12:55 41.30432 -74.27542 17924 ft 426 kts 324°
2026-05-09 12:55 41.32990 -74.29570 18341 ft 429 kts 324°
2026-05-09 12:56 41.35566 -74.31614 18757 ft 432 kts 324°
2026-05-09 12:56 41.38169 -74.33682 19164 ft 435 kts 324°
2026-05-09 12:56 41.40654 -74.35881 19485 ft 431 kts 313°
2026-05-09 12:56 41.42538 -74.38961 19604 ft 425 kts 295°
2026-05-09 12:57 41.43893 -74.42356 20160 ft 418 kts 290°
2026-05-09 12:57 41.45209 -74.45861 20676 ft 419 kts 291°
2026-05-09 12:57 41.46568 -74.49276 21052 ft 423 kts 292°
2026-05-09 12:57 41.48022 -74.52728 21413 ft 427 kts 293°
2026-05-09 12:58 41.49512 -74.56172 21768 ft 431 kts 294°
2026-05-09 12:58 41.51009 -74.59619 22133 ft 433 kts 294°
2026-05-09 12:58 41.52520 -74.63105 22521 ft 435 kts 293°
2026-05-09 12:58 41.54036 -74.66616 22889 ft 437 kts 292°
2026-05-09 12:59 41.55544 -74.70116 23280 ft 439 kts 292°
2026-05-09 12:59 41.57082 -74.73689 23644 ft 441 kts 292°
2026-05-09 12:59 41.58601 -74.77226 23979 ft 444 kts 292°
2026-05-09 12:59 41.60138 -74.80814 24295 ft 446 kts 292°
2026-05-09 13:00 41.61686 -74.84441 24606 ft 448 kts 292°
2026-05-09 13:00 41.63222 -74.88039 24923 ft 450 kts 292°
2026-05-09 13:00 41.64777 -74.91678 25217 ft 452 kts 292°
2026-05-09 13:00 41.66330 -74.95312 25484 ft 453 kts 292°
2026-05-09 13:01 41.67899 -74.98991 25741 ft 455 kts 291°
2026-05-09 13:01 41.69456 -75.02648 26009 ft 456 kts 291°
2026-05-09 13:01 41.71027 -75.06341 26285 ft 458 kts 291°
2026-05-09 13:01 41.72621 -75.10092 26567 ft 460 kts 291°
2026-05-09 13:02 41.74195 -75.13799 26945 ft 459 kts 291°
2026-05-09 13:02 41.75767 -75.17506 27256 ft 460 kts 291°
2026-05-09 13:02 41.77342 -75.21231 27467 ft 462 kts 291°
2026-05-09 13:02 41.78928 -75.24982 27791 ft 461 kts 291°
2026-05-09 13:03 41.80486 -75.28665 28144 ft 459 kts 290°
2026-05-09 13:03 41.82068 -75.32417 28373 ft 460 kts 290°
2026-05-09 13:03 41.83640 -75.36153 28565 ft 461 kts 290°
2026-05-09 13:03 41.85211 -75.39887 28908 ft 458 kts 290°
2026-05-09 13:04 41.86764 -75.43576 29150 ft 456 kts 290°
2026-05-09 13:04 41.88318 -75.47285 29276 ft 457 kts 290°
2026-05-09 13:04 41.89867 -75.50985 29407 ft 457 kts 290°
2026-05-09 13:04 41.91432 -75.54725 29543 ft 457 kts 290°
2026-05-09 13:05 41.92983 -75.58437 29678 ft 457 kts 290°
2026-05-09 13:05 41.94532 -75.62170 29812 ft 457 kts 289°
2026-05-09 13:05 41.96078 -75.65932 29904 ft 457 kts 289°
2026-05-09 13:06 41.99147 -75.73356 29917 ft 459 kts 289°
2026-05-09 13:06 42.02273 -75.80877 29926 ft 459 kts 289°
2026-05-09 13:07 42.05362 -75.88330 29931 ft 459 kts 289°
2026-05-09 13:07 42.08472 -75.95866 29936 ft 458 kts 289°
2026-05-09 13:08 42.11558 -76.03356 29901 ft 458 kts 289°
2026-05-09 13:08 42.14637 -76.10850 29889 ft 458 kts 289°
2026-05-09 13:09 42.17391 -76.18449 29889 ft 451 kts 283°
2026-05-09 13:09 42.19834 -76.26264 29886 ft 450 kts 283°
2026-05-09 13:10 42.22291 -76.33993 29885 ft 451 kts 284°
2026-05-09 13:10 42.24776 -76.41737 29884 ft 450 kts 284°
2026-05-09 13:11 42.27251 -76.49490 29884 ft 450 kts 284°
2026-05-09 13:11 42.29725 -76.57270 29883 ft 451 kts 284°
2026-05-09 13:12 42.32186 -76.65028 29883 ft 450 kts 283°
2026-05-09 13:12 42.34648 -76.72814 29894 ft 450 kts 283°
2026-05-09 13:13 42.37090 -76.80560 29891 ft 450 kts 283°
2026-05-09 13:13 42.39537 -76.88343 29887 ft 449 kts 283°
2026-05-09 13:14 42.41969 -76.96098 29880 ft 449 kts 283°
2026-05-09 13:16 42.51595 -77.27201 29871 ft 448 kts 283°
2026-05-09 13:16 42.54002 -77.34995 29867 ft 449 kts 283°
2026-05-09 13:17 42.56403 -77.42796 29864 ft 449 kts 283°
2026-05-09 13:17 42.58808 -77.50630 29859 ft 449 kts 283°
2026-05-09 13:18 42.61212 -77.58488 29860 ft 449 kts 283°
2026-05-09 13:18 42.63597 -77.66303 29867 ft 448 kts 282°
2026-05-09 13:19 42.65962 -77.74119 29866 ft 446 kts 281°
2026-05-09 13:19 42.68161 -77.81956 29864 ft 444 kts 280°
2026-05-09 13:20 42.70327 -77.89771 29864 ft 445 kts 281°
2026-05-09 13:20 42.72538 -77.97700 29865 ft 447 kts 281°
2026-05-09 13:21 42.74736 -78.05595 29862 ft 447 kts 281°
2026-05-09 13:21 42.76920 -78.13466 29858 ft 446 kts 281°
2026-05-09 13:22 42.79104 -78.21373 29853 ft 447 kts 281°
2026-05-09 13:22 42.81292 -78.29311 29846 ft 447 kts 281°
2026-05-09 13:23 42.86716 -78.49113 29837 ft 446 kts 281°
2026-05-09 13:24 42.88863 -78.56999 29835 ft 447 kts 281°
2026-05-09 13:24 42.91016 -78.64927 29835 ft 446 kts 281°
2026-05-09 13:25 42.93145 -78.72886 29847 ft 441 kts 277°
2026-05-09 13:25 42.94381 -78.80951 29861 ft 430 kts 269°
2026-05-09 13:26 42.94809 -78.84946 29862 ft 430 kts 269°
2026-05-09 13:26 42.95739 -78.93008 29857 ft 431 kts 270°
2026-05-09 13:27 42.96498 -79.01074 29853 ft 425 kts 266°
2026-05-09 13:27 42.96931 -79.09091 29849 ft 424 kts 266°
2026-05-09 13:28 42.97373 -79.17140 29844 ft 425 kts 267°
2026-05-09 13:28 42.97839 -79.25156 29826 ft 425 kts 268°
2026-05-09 13:29 42.98274 -79.33180 29834 ft 425 kts 268°
2026-05-09 13:29 42.98736 -79.41239 29829 ft 424 kts 268°
2026-05-09 13:30 42.99185 -79.49258 29820 ft 423 kts 267°
2026-05-09 13:30 42.99618 -79.57273 29826 ft 423 kts 268°
2026-05-09 13:31 43.00040 -79.65232 29807 ft 422 kts 266°
2026-05-09 13:31 43.00467 -79.73246 29823 ft 421 kts 266°
2026-05-09 13:32 43.00867 -79.81200 29825 ft 420 kts 266°
2026-05-09 13:32 43.01454 -79.93185 29828 ft 421 kts 266°
2026-05-09 13:33 43.01856 -80.01103 29821 ft 420 kts 267°
2026-05-09 13:33 43.02258 -80.09107 29825 ft 421 kts 266°
2026-05-09 13:34 43.02647 -80.17053 29824 ft 419 kts 266°
2026-05-09 13:34 43.03017 -80.24941 29820 ft 418 kts 266°
2026-05-09 13:35 43.03404 -80.32867 29806 ft 419 kts 267°
2026-05-09 13:35 43.03788 -80.40822 29801 ft 420 kts 266°
2026-05-09 13:36 43.04145 -80.48809 29789 ft 418 kts 266°
2026-05-09 13:36 43.04489 -80.56700 29799 ft 418 kts 266°
2026-05-09 13:37 43.04845 -80.64629 29793 ft 420 kts 266°
2026-05-09 13:37 43.05204 -80.72601 29805 ft 418 kts 265°
2026-05-09 13:38 43.05547 -80.80512 29811 ft 419 kts 266°
2026-05-09 13:38 43.05897 -80.88453 29807 ft 419 kts 266°
2026-05-09 13:39 43.06217 -80.96375 29808 ft 417 kts 266°
2026-05-09 13:39 43.06559 -81.04314 29799 ft 416 kts 266°
2026-05-09 13:40 43.07105 -81.12209 29802 ft 422 kts 275°
2026-05-09 13:40 43.08491 -81.20055 29798 ft 426 kts 278°
2026-05-09 13:41 43.09953 -81.27879 29797 ft 425 kts 278°
2026-05-09 13:41 43.11359 -81.35729 29777 ft 425 kts 277°
2026-05-09 13:42 43.12766 -81.43594 29781 ft 425 kts 278°
2026-05-09 13:42 43.14151 -81.51463 29777 ft 426 kts 278°
2026-05-09 13:43 43.15544 -81.59286 29774 ft 424 kts 277°
2026-05-09 13:43 43.16926 -81.67140 29777 ft 426 kts 277°
2026-05-09 13:44 43.18312 -81.75048 29773 ft 424 kts 277°
2026-05-09 13:44 43.19664 -81.82886 29759 ft 424 kts 277°
2026-05-09 13:45 43.21029 -81.90736 29747 ft 424 kts 277°
2026-05-09 13:45 43.22394 -81.98617 29744 ft 424 kts 277°
2026-05-09 13:46 43.23749 -82.06470 29751 ft 424 kts 277°
2026-05-09 13:46 43.25096 -82.14295 29753 ft 425 kts 277°
2026-05-09 13:47 43.26436 -82.22173 29752 ft 425 kts 277°
2026-05-09 13:47 43.27197 -82.30080 29756 ft 413 kts 264°
2026-05-09 13:48 43.26949 -82.37949 29753 ft 412 kts 262°
2026-05-09 13:48 43.26740 -82.45808 29742 ft 413 kts 264°
2026-05-09 13:49 43.26588 -82.53686 29750 ft 414 kts 264°
2026-05-09 13:49 43.26433 -82.61577 29746 ft 414 kts 263°
2026-05-09 13:50 43.26281 -82.69417 29752 ft 414 kts 265°
2026-05-09 13:50 43.26706 -82.73368 29764 ft 424 kts 278°
2026-05-09 13:50 43.27653 -82.77273 29754 ft 431 kts 283°
2026-05-09 13:51 43.29853 -82.84931 29719 ft 432 kts 284°
2026-05-09 13:51 43.31933 -82.92641 29700 ft 428 kts 283°
2026-05-09 13:52 43.33925 -83.00253 29686 ft 425 kts 283°
2026-05-09 13:52 43.35919 -83.07882 29679 ft 423 kts 283°
2026-05-09 13:53 43.37907 -83.15487 29682 ft 424 kts 283°
2026-05-09 13:53 43.39892 -83.23106 29680 ft 423 kts 283°
2026-05-09 13:54 43.41861 -83.30693 29674 ft 423 kts 283°
2026-05-09 13:54 43.43834 -83.38319 29676 ft 423 kts 283°
2026-05-09 13:55 43.45797 -83.45920 29676 ft 424 kts 283°
2026-05-09 13:55 43.47772 -83.53601 29678 ft 424 kts 283°
2026-05-09 13:56 43.49721 -83.61204 29670 ft 423 kts 283°
2026-05-09 13:56 43.51677 -83.68868 29674 ft 423 kts 282°
2026-05-09 13:57 43.53624 -83.76516 29665 ft 424 kts 282°
2026-05-09 13:57 43.55552 -83.84119 29670 ft 423 kts 282°
2026-05-09 13:58 43.57488 -83.91766 29674 ft 423 kts 282°
2026-05-09 13:58 43.59427 -83.99446 29680 ft 423 kts 282°
2026-05-09 13:59 43.61346 -84.07086 29675 ft 421 kts 282°
2026-05-09 13:59 43.63260 -84.14729 29678 ft 421 kts 282°
2026-05-09 14:00 43.64526 -84.19799 29679 ft 422 kts 282°
2026-05-09 14:00 43.67073 -84.30024 29675 ft 423 kts 282°
2026-05-09 14:01 43.68972 -84.37676 29662 ft 422 kts 282°
2026-05-09 14:01 43.70873 -84.45368 29652 ft 422 kts 282°
2026-05-09 14:02 43.72762 -84.53040 29640 ft 424 kts 282°
2026-05-09 14:02 43.74647 -84.60708 29642 ft 422 kts 282°
2026-05-09 14:03 43.76539 -84.68430 29658 ft 423 kts 282°
2026-05-09 14:03 43.78406 -84.76108 29656 ft 421 kts 282°
2026-05-09 14:04 43.80271 -84.83776 29656 ft 423 kts 282°
2026-05-09 14:04 43.82143 -84.91505 29655 ft 423 kts 282°
2026-05-09 14:05 43.84005 -84.99210 29658 ft 422 kts 282°
2026-05-09 14:05 43.85847 -85.06864 29646 ft 418 kts 282°
2026-05-09 14:06 43.87659 -85.14416 29640 ft 412 kts 282°
2026-05-09 14:06 43.89454 -85.21922 29635 ft 408 kts 283°
2026-05-09 14:07 43.91230 -85.29381 29634 ft 409 kts 283°
2026-05-09 14:07 43.93012 -85.36888 29630 ft 409 kts 283°
2026-05-09 14:08 43.94797 -85.44430 29627 ft 409 kts 283°
2026-05-09 14:08 43.96571 -85.51947 29631 ft 409 kts 283°
2026-05-09 14:09 43.98326 -85.59412 29634 ft 409 kts 283°
2026-05-09 14:09 44.00089 -85.66937 29647 ft 408 kts 282°
2026-05-09 14:10 44.02709 -85.78196 29655 ft 409 kts 282°
2026-05-09 14:11 44.04452 -85.85697 29657 ft 408 kts 282°
2026-05-09 14:11 44.06191 -85.93207 29665 ft 407 kts 282°
2026-05-09 14:12 44.07917 -86.00687 29664 ft 407 kts 282°
2026-05-09 14:12 44.09641 -86.08189 29663 ft 408 kts 282°
2026-05-09 14:13 44.11358 -86.15678 29656 ft 407 kts 282°
2026-05-09 14:15 44.18194 -86.45764 29650 ft 407 kts 282°
2026-05-09 14:15 44.19886 -86.53278 29646 ft 407 kts 282°
2026-05-09 14:16 44.21569 -86.60771 29642 ft 407 kts 282°
2026-05-09 14:16 44.23246 -86.68278 29656 ft 407 kts 282°
2026-05-09 14:17 44.24924 -86.75829 29661 ft 406 kts 282°
2026-05-09 14:17 44.26598 -86.83369 29662 ft 406 kts 282°
2026-05-09 14:18 44.28262 -86.90887 29659 ft 407 kts 282°
2026-05-09 14:18 44.29928 -86.98443 29667 ft 409 kts 282°
2026-05-09 14:19 44.31595 -87.06029 29673 ft 411 kts 283°
2026-05-09 14:19 44.33264 -87.13650 29678 ft 413 kts 283°
2026-05-09 14:20 44.34944 -87.21349 29674 ft 413 kts 283°
2026-05-09 14:20 44.36608 -87.29005 29676 ft 413 kts 283°
2026-05-09 14:21 44.39100 -87.40521 29675 ft 413 kts 283°
2026-05-09 14:21 44.40763 -87.48241 29674 ft 413 kts 283°
2026-05-09 14:22 44.42417 -87.55946 29673 ft 413 kts 283°
2026-05-09 14:22 44.44053 -87.63596 29672 ft 413 kts 283°
2026-05-09 14:23 44.45691 -87.71304 29684 ft 413 kts 282°
2026-05-09 14:23 44.47321 -87.78999 29690 ft 413 kts 282°
2026-05-09 14:24 44.48949 -87.86697 29691 ft 413 kts 282°
2026-05-09 14:24 44.50579 -87.94435 29684 ft 413 kts 282°
2026-05-09 14:25 44.52189 -88.02104 29685 ft 413 kts 282°
2026-05-09 14:25 44.53795 -88.09786 29685 ft 413 kts 282°
2026-05-09 14:26 44.55401 -88.17526 29685 ft 412 kts 281°
2026-05-09 14:26 44.56436 -88.25375 29684 ft 410 kts 276°
2026-05-09 14:27 44.57410 -88.33222 29687 ft 410 kts 277°
2026-05-09 14:27 44.58489 -88.41106 29691 ft 410 kts 278°
2026-05-09 14:28 44.59562 -88.48936 29694 ft 410 kts 277°
2026-05-09 14:28 44.60625 -88.56786 29697 ft 410 kts 278°
2026-05-09 14:29 44.61680 -88.64623 29697 ft 410 kts 278°
2026-05-09 14:29 44.62730 -88.72488 29711 ft 410 kts 277°
2026-05-09 14:30 44.63776 -88.80360 29718 ft 410 kts 277°
2026-05-09 14:30 44.64816 -88.88208 29724 ft 410 kts 278°
2026-05-09 14:31 44.65852 -88.96073 29726 ft 412 kts 279°
2026-05-09 14:31 44.66892 -89.04006 29727 ft 415 kts 279°
2026-05-09 14:32 44.67933 -89.11998 29721 ft 415 kts 279°
2026-05-09 14:32 44.68969 -89.19990 29716 ft 415 kts 279°
2026-05-09 14:33 44.69994 -89.27953 29713 ft 415 kts 279°
2026-05-09 14:33 44.71015 -89.35922 29715 ft 415 kts 279°
2026-05-09 14:34 44.72033 -89.43922 29715 ft 414 kts 279°
2026-05-09 14:34 44.73040 -89.51869 29715 ft 414 kts 279°
2026-05-09 14:35 44.74043 -89.59843 29714 ft 414 kts 279°
2026-05-09 14:35 44.75039 -89.67803 29720 ft 414 kts 278°
2026-05-09 14:36 44.76028 -89.75798 29717 ft 414 kts 278°
2026-05-09 14:36 44.77018 -89.83810 29721 ft 413 kts 279°
2026-05-09 14:37 44.77991 -89.91727 29724 ft 414 kts 279°
2026-05-09 14:37 44.78970 -89.99738 29725 ft 414 kts 279°
2026-05-09 14:38 44.79938 -90.07712 29724 ft 414 kts 279°
2026-05-09 14:38 44.80906 -90.15739 29724 ft 414 kts 279°
2026-05-09 14:39 44.81858 -90.23678 29725 ft 414 kts 278°
2026-05-09 14:39 44.82814 -90.31697 29722 ft 414 kts 279°
2026-05-09 14:40 44.83762 -90.39691 29722 ft 414 kts 279°
2026-05-09 14:40 44.84703 -90.47689 29721 ft 414 kts 278°
2026-05-09 14:41 44.85641 -90.55705 29719 ft 414 kts 279°
2026-05-09 14:41 44.86573 -90.63725 29717 ft 414 kts 279°
2026-05-09 14:42 44.87494 -90.71725 29718 ft 414 kts 278°
2026-05-09 14:42 44.88409 -90.79722 29726 ft 414 kts 278°
2026-05-09 14:43 44.89330 -90.87786 29738 ft 414 kts 278°
2026-05-09 14:43 44.90234 -90.95768 29749 ft 414 kts 278°
2026-05-09 14:44 44.91137 -91.03790 29754 ft 416 kts 278°
2026-05-09 14:44 44.92048 -91.11937 29753 ft 418 kts 279°
2026-05-09 14:45 44.92947 -91.20032 29752 ft 421 kts 279°
2026-05-09 14:45 44.93850 -91.28215 29752 ft 422 kts 279°
2026-05-09 14:46 44.94745 -91.36378 29751 ft 421 kts 279°
2026-05-09 14:46 44.95634 -91.44544 29751 ft 421 kts 279°
2026-05-09 14:47 44.96516 -91.52705 29754 ft 421 kts 279°
2026-05-09 14:47 44.97393 -91.60877 29758 ft 422 kts 280°
2026-05-09 14:48 44.98265 -91.69060 29773 ft 423 kts 279°
2026-05-09 14:48 44.99138 -91.77338 29783 ft 425 kts 279°
2026-05-09 14:49 45.00005 -91.85592 29780 ft 425 kts 279°
2026-05-09 14:49 45.00865 -91.93829 29781 ft 426 kts 279°
2026-05-09 14:50 45.01725 -92.02127 29779 ft 427 kts 279°
2026-05-09 14:50 45.02577 -92.10420 29776 ft 428 kts 279°
2026-05-09 14:51 45.03428 -92.18753 29779 ft 428 kts 279°
2026-05-09 14:51 45.04275 -92.27111 29786 ft 430 kts 279°
2026-05-09 14:52 45.05116 -92.35469 29790 ft 431 kts 279°
2026-05-09 14:52 45.05950 -92.43829 29794 ft 431 kts 279°
2026-05-09 14:53 45.06782 -92.52232 29796 ft 432 kts 280°
2026-05-09 14:53 45.07609 -92.60649 29796 ft 433 kts 280°
2026-05-09 14:54 45.08432 -92.69098 29800 ft 434 kts 279°
2026-05-09 14:54 45.09255 -92.77627 29837 ft 435 kts 279°
2026-05-09 14:55 45.09658 -92.81813 30007 ft 436 kts 279°
2026-05-09 14:55 45.10067 -92.86083 30235 ft 436 kts 279°
2026-05-09 14:55 45.10470 -92.90305 30499 ft 435 kts 279°
2026-05-09 14:55 45.10876 -92.94585 30769 ft 434 kts 280°
2026-05-09 14:56 45.11273 -92.98777 31025 ft 433 kts 280°
2026-05-09 14:56 45.11668 -93.02971 31266 ft 432 kts 281°
2026-05-09 14:56 45.12068 -93.07225 31473 ft 431 kts 281°
2026-05-09 14:56 45.12458 -93.11396 31671 ft 431 kts 282°
2026-05-09 14:57 45.12847 -93.15562 31802 ft 430 kts 282°
2026-05-09 14:57 45.13242 -93.19792 31808 ft 431 kts 282°
2026-05-09 14:57 45.14019 -93.28242 31809 ft 432 kts 282°
2026-05-09 14:58 45.14736 -93.36640 31796 ft 434 kts 276°
2026-05-09 14:58 45.14134 -93.45219 31818 ft 442 kts 266°
2026-05-09 14:59 45.13291 -93.53780 31827 ft 440 kts 268°
2026-05-09 14:59 45.12616 -93.62413 31837 ft 440 kts 269°
2026-05-09 15:00 45.11947 -93.70962 31967 ft 438 kts 268°
2026-05-09 15:00 45.11260 -93.79588 31886 ft 439 kts 268°
2026-05-09 15:01 45.10202 -93.92430 31847 ft 438 kts 268°
2026-05-09 15:02 45.09503 -94.00970 31853 ft 437 kts 268°
2026-05-09 15:02 45.08799 -94.09485 31864 ft 437 kts 268°
2026-05-09 15:03 45.08086 -94.18010 31862 ft 437 kts 268°
2026-05-09 15:03 45.07369 -94.26500 31863 ft 436 kts 268°
2026-05-09 15:04 45.06647 -94.34982 31866 ft 435 kts 268°
2026-05-09 15:06 45.03708 -94.68748 31880 ft 431 kts 268°
2026-05-09 15:06 45.02961 -94.77114 31879 ft 429 kts 268°
2026-05-09 15:07 45.02212 -94.85465 31883 ft 429 kts 268°
2026-05-09 15:07 45.01455 -94.93800 31886 ft 428 kts 269°
2026-05-09 15:08 45.00705 -95.02119 31889 ft 426 kts 270°
2026-05-09 15:08 44.99552 -95.14498 31889 ft 422 kts 270°
2026-05-09 15:10 44.96499 -95.47067 31914 ft 416 kts 270°
2026-05-09 15:11 44.95726 -95.55089 31921 ft 414 kts 270°
2026-05-09 15:11 44.94950 -95.63151 31920 ft 413 kts 270°
2026-05-09 15:12 44.94162 -95.71182 31932 ft 415 kts 269°
2026-05-09 15:12 44.93379 -95.79253 31944 ft 415 kts 269°
2026-05-09 15:13 44.92570 -95.87315 31938 ft 416 kts 269°
2026-05-09 15:13 44.91769 -95.95360 31948 ft 415 kts 269°
2026-05-09 15:14 44.90952 -96.03423 31957 ft 416 kts 269°
2026-05-09 15:14 44.90135 -96.11500 31960 ft 416 kts 269°
2026-05-09 15:15 44.89448 -96.18206 31929 ft 415 kts 269°
2026-05-09 15:15 44.88501 -96.27567 31927 ft 413 kts 269°
2026-05-09 15:16 44.87685 -96.35584 31924 ft 415 kts 269°
2026-05-09 15:16 44.86847 -96.43646 31931 ft 415 kts 269°
2026-05-09 15:17 44.85986 -96.51684 31917 ft 416 kts 269°
2026-05-09 15:17 44.85146 -96.59744 31910 ft 416 kts 269°
2026-05-09 15:18 44.84291 -96.67782 31919 ft 416 kts 269°
2026-05-09 15:18 44.83412 -96.75816 31948 ft 416 kts 269°
2026-05-09 15:19 44.82542 -96.83891 31931 ft 416 kts 269°
2026-05-09 15:19 44.81677 -96.91883 31932 ft 416 kts 269°
2026-05-09 15:20 44.80353 -97.03992 31931 ft 417 kts 270°
2026-05-09 15:21 44.79468 -97.12071 31929 ft 420 kts 270°
2026-05-09 15:21 44.78565 -97.20196 31933 ft 421 kts 270°
2026-05-09 15:22 44.77677 -97.28320 31920 ft 424 kts 271°
2026-05-09 15:22 44.76762 -97.36509 31921 ft 425 kts 270°
2026-05-09 15:23 44.75813 -97.44719 31918 ft 425 kts 270°
2026-05-09 15:23 44.74865 -97.52932 31920 ft 424 kts 270°
2026-05-09 15:24 44.73941 -97.61092 31915 ft 424 kts 270°
2026-05-09 15:24 44.72967 -97.69267 31926 ft 425 kts 270°
2026-05-09 15:25 44.72034 -97.77501 31926 ft 427 kts 270°
2026-05-09 15:25 44.71066 -97.85731 31934 ft 426 kts 270°
2026-05-09 15:26 44.69612 -97.98083 31953 ft 426 kts 270°
2026-05-09 15:26 44.68642 -98.06329 31954 ft 428 kts 270°
2026-05-09 15:27 44.67639 -98.14587 31932 ft 429 kts 270°
2026-05-09 15:27 44.66656 -98.22807 31943 ft 426 kts 269°
2026-05-09 15:28 44.65645 -98.31042 31951 ft 427 kts 270°
2026-05-09 15:28 44.64656 -98.39210 31939 ft 426 kts 270°
2026-05-09 15:29 44.63681 -98.47413 31955 ft 426 kts 270°
2026-05-09 15:29 44.62653 -98.55637 31940 ft 428 kts 269°
2026-05-09 15:30 44.61620 -98.63844 31943 ft 427 kts 270°
2026-05-09 15:30 44.60583 -98.72068 31956 ft 429 kts 269°
2026-05-09 15:31 44.59552 -98.80296 31954 ft 429 kts 269°
2026-05-09 15:31 44.58517 -98.88547 31963 ft 427 kts 269°
2026-05-09 15:32 44.57480 -98.96712 31951 ft 428 kts 270°
2026-05-09 15:32 44.56419 -99.04945 31954 ft 427 kts 271°
2026-05-09 15:33 44.55365 -99.13119 31968 ft 425 kts 271°
2026-05-09 15:33 44.54313 -99.21219 31956 ft 424 kts 271°
2026-05-09 15:34 44.53261 -99.29353 31981 ft 424 kts 272°
2026-05-09 15:34 44.52187 -99.37524 31973 ft 426 kts 272°
2026-05-09 15:35 44.51124 -99.45647 31974 ft 425 kts 271°
2026-05-09 15:35 44.50027 -99.53800 31985 ft 425 kts 271°
2026-05-09 15:36 44.48918 -99.61920 31973 ft 425 kts 271°
2026-05-09 15:36 44.47871 -99.70037 31998 ft 423 kts 271°
2026-05-09 15:37 44.46768 -99.78144 32005 ft 422 kts 271°
2026-05-09 15:37 44.45705 -99.86177 31995 ft 422 kts 270°
2026-05-09 15:38 44.44575 -99.94268 32020 ft 424 kts 270°
2026-05-09 15:38 44.43445 -100.02335 32000 ft 423 kts 271°
2026-05-09 15:39 44.42331 -100.10417 31988 ft 425 kts 270°
2026-05-09 15:39 44.41235 -100.18539 31973 ft 425 kts 270°
2026-05-09 15:40 44.40114 -100.26641 31986 ft 426 kts 271°
2026-05-09 15:40 44.38964 -100.34721 31978 ft 425 kts 270°
2026-05-09 15:41 44.37827 -100.42801 31986 ft 424 kts 271°
2026-05-09 15:41 44.36684 -100.50900 31985 ft 426 kts 270°
2026-05-09 15:42 44.35515 -100.59009 31990 ft 426 kts 270°
2026-05-09 15:42 44.34338 -100.67097 31987 ft 424 kts 270°
2026-05-09 15:43 44.33176 -100.75152 31986 ft 427 kts 270°
2026-05-09 15:43 44.32003 -100.83304 32006 ft 427 kts 270°
2026-05-09 15:44 44.30851 -100.91370 32003 ft 422 kts 270°
2026-05-09 15:44 44.29675 -100.99438 32018 ft 424 kts 269°
2026-05-09 15:45 44.28494 -101.07494 32034 ft 427 kts 270°
2026-05-09 15:45 44.27303 -101.15629 32033 ft 428 kts 269°
2026-05-09 15:46 44.26071 -101.23749 32024 ft 426 kts 269°
2026-05-09 15:46 44.24873 -101.31785 32025 ft 425 kts 269°
2026-05-09 15:47 44.23660 -101.39884 32036 ft 425 kts 270°
2026-05-09 15:47 44.22446 -101.47938 32032 ft 428 kts 269°
2026-05-09 15:48 44.21215 -101.56020 32032 ft 426 kts 270°
2026-05-09 15:48 44.19981 -101.64133 32030 ft 428 kts 269°
2026-05-09 15:49 44.18724 -101.72228 32035 ft 428 kts 269°
2026-05-09 15:49 44.17471 -101.80344 32050 ft 428 kts 269°
2026-05-09 15:50 44.16224 -101.88457 32050 ft 427 kts 269°
2026-05-09 15:50 44.14990 -101.96497 32051 ft 427 kts 269°
2026-05-09 15:51 44.13741 -102.04603 32050 ft 429 kts 269°
2026-05-09 15:51 44.12432 -102.12696 32042 ft 426 kts 268°
2026-05-09 15:52 44.10533 -102.24766 32037 ft 427 kts 269°
2026-05-09 15:53 44.09249 -102.32818 32042 ft 427 kts 269°
2026-05-09 15:53 44.07983 -102.40852 32047 ft 425 kts 269°
2026-05-09 15:54 44.06692 -102.48853 32047 ft 425 kts 269°
2026-05-09 15:54 44.05402 -102.56869 32046 ft 425 kts 269°
2026-05-09 15:55 44.04083 -102.64932 32047 ft 428 kts 269°
2026-05-09 15:55 44.02777 -102.72990 32066 ft 430 kts 268°
2026-05-09 15:56 44.01443 -102.81040 32066 ft 426 kts 268°
2026-05-09 15:56 44.00119 -102.89083 32069 ft 427 kts 268°
2026-05-09 15:57 43.98814 -102.97071 32074 ft 428 kts 268°
2026-05-09 15:57 43.97785 -103.05151 32071 ft 418 kts 276°
2026-05-09 15:58 43.97803 -103.13157 32071 ft 414 kts 281°
2026-05-09 15:58 43.98032 -103.21129 32062 ft 417 kts 280°
2026-05-09 15:59 43.98206 -103.29247 32056 ft 419 kts 279°
2026-05-09 15:59 43.98363 -103.37302 32053 ft 418 kts 279°
2026-05-09 16:00 43.98510 -103.45327 32049 ft 418 kts 279°
2026-05-09 16:00 43.98653 -103.53386 32044 ft 417 kts 279°
2026-05-09 16:01 43.98799 -103.61446 32042 ft 418 kts 279°
2026-05-09 16:01 43.98938 -103.69492 32047 ft 419 kts 279°
2026-05-09 16:02 43.99065 -103.77609 32058 ft 419 kts 279°
2026-05-09 16:02 43.99247 -103.89768 32055 ft 419 kts 279°
2026-05-09 16:03 43.99367 -103.97849 32060 ft 418 kts 279°
2026-05-09 16:03 43.99472 -104.05894 32055 ft 419 kts 279°
2026-05-09 16:04 43.99579 -104.13972 32052 ft 420 kts 279°
2026-05-09 16:04 43.99682 -104.22109 32044 ft 420 kts 279°
2026-05-09 16:05 43.99772 -104.30174 32029 ft 419 kts 279°
2026-05-09 16:05 43.99855 -104.38296 32033 ft 419 kts 279°
2026-05-09 16:06 43.99939 -104.46371 32026 ft 419 kts 279°
2026-05-09 16:06 44.00023 -104.54473 32078 ft 418 kts 279°
2026-05-09 16:07 44.00088 -104.62553 32074 ft 419 kts 279°
2026-05-09 16:07 44.00144 -104.70641 32077 ft 419 kts 278°
2026-05-09 16:08 44.00211 -104.78715 32085 ft 419 kts 278°
2026-05-09 16:08 44.00258 -104.86835 32088 ft 419 kts 278°
2026-05-09 16:09 44.00308 -104.94938 32087 ft 420 kts 278°
2026-05-09 16:09 44.00352 -105.03062 32086 ft 422 kts 278°
2026-05-09 16:10 44.00387 -105.11240 32081 ft 423 kts 278°
2026-05-09 16:10 44.00419 -105.19405 32080 ft 424 kts 278°
2026-05-09 16:11 44.00441 -105.27605 32081 ft 424 kts 278°
2026-05-09 16:11 44.00460 -105.35767 32078 ft 423 kts 278°
2026-05-09 16:12 44.00474 -105.43948 32078 ft 424 kts 278°
2026-05-09 16:12 44.00478 -105.52087 32077 ft 425 kts 278°
2026-05-09 16:13 44.00477 -105.60319 32072 ft 423 kts 278°
2026-05-09 16:13 44.00473 -105.68462 32075 ft 424 kts 277°
2026-05-09 16:14 44.00456 -105.76694 32081 ft 425 kts 277°
2026-05-09 16:14 44.00446 -105.84839 32088 ft 424 kts 277°
2026-05-09 16:15 44.00423 -105.93053 32093 ft 425 kts 277°
2026-05-09 16:15 44.00397 -106.01238 32088 ft 425 kts 277°
2026-05-09 16:16 44.00357 -106.09470 32089 ft 425 kts 278°
2026-05-09 16:16 44.00316 -106.17690 32087 ft 425 kts 278°
2026-05-09 16:17 44.00272 -106.25870 32091 ft 425 kts 277°
2026-05-09 16:17 44.00223 -106.34047 32095 ft 424 kts 278°
2026-05-09 16:18 44.00167 -106.42230 32100 ft 425 kts 277°
2026-05-09 16:18 44.00247 -106.50431 32098 ft 422 kts 281°
2026-05-09 16:19 44.00574 -106.58532 32101 ft 420 kts 281°
2026-05-09 16:19 44.00907 -106.66592 32101 ft 421 kts 281°
2026-05-09 16:20 44.01221 -106.74716 32110 ft 422 kts 281°
2026-05-09 16:20 44.01526 -106.82867 32113 ft 421 kts 281°
2026-05-09 16:21 44.01833 -106.90996 32113 ft 424 kts 280°
2026-05-09 16:21 44.02137 -106.99216 32111 ft 427 kts 279°
2026-05-09 16:22 44.02430 -107.07474 32112 ft 429 kts 279°
2026-05-09 16:22 44.02724 -107.15716 32102 ft 428 kts 279°
2026-05-09 16:23 44.03004 -107.23991 32102 ft 429 kts 279°
2026-05-09 16:23 44.03285 -107.32233 32098 ft 428 kts 279°
2026-05-09 16:24 44.03563 -107.40479 32095 ft 428 kts 279°
2026-05-09 16:24 44.03827 -107.48758 32096 ft 429 kts 279°
2026-05-09 16:25 44.04043 -107.55611 32096 ft 428 kts 279°
2026-05-09 16:25 44.04350 -107.65288 32094 ft 428 kts 278°
2026-05-09 16:26 44.04592 -107.73580 32105 ft 429 kts 278°
2026-05-09 16:26 44.04834 -107.81817 32104 ft 430 kts 278°
2026-05-09 16:27 44.05071 -107.90098 32104 ft 429 kts 278°
2026-05-09 16:27 44.05304 -107.98418 32101 ft 429 kts 278°
2026-05-09 16:28 44.05531 -108.06697 32104 ft 430 kts 278°
2026-05-09 16:28 44.05759 -108.14983 32102 ft 429 kts 278°
2026-05-09 16:29 44.05965 -108.23247 32096 ft 429 kts 278°
2026-05-09 16:29 44.06175 -108.31528 32095 ft 430 kts 278°
2026-05-09 16:30 44.06380 -108.39852 32094 ft 430 kts 278°
2026-05-09 16:30 44.06571 -108.48104 32089 ft 430 kts 278°
2026-05-09 16:31 44.06759 -108.56424 32104 ft 429 kts 278°
2026-05-09 16:31 44.06944 -108.64665 32129 ft 429 kts 278°
2026-05-09 16:32 44.07097 -108.71612 32144 ft 430 kts 278°